Location: Red Rock Farm
(35.2100°N, 97.2200°W)
Time: 11:00:58
(UTC-05:00)

ISS - All Passes

Search period start: 25 April 2015 00:00
Search period end: 05 May 2015 00:00
Orbit: 395 x 402 km, 51.6° (Epoch: 25 April)

Date Brightness Start Highest point End Pass type
(mag) Time Alt. Az. Time Alt. Az. Time Alt. Az.
25 Apr - 12:20:18 10° SW 12:23:31 66° SE 12:26:45 10° NE daylight
25 Apr - 13:58:15 10° WNW 14:00:12 15° NNW 14:02:05 10° N daylight
25 Apr - 18:50:37 10° NNW 18:53:08 20° NNE 18:55:41 10° E daylight
25 Apr - 20:26:35 10° WNW 20:29:35 35° SW 20:32:35 10° SSE daylight
26 Apr - 11:26:46 10° SSW 11:29:34 28° SE 11:32:26 10° ENE daylight
26 Apr - 13:03:12 10° W 13:05:56 24° NNW 13:08:39 10° NNE daylight
26 Apr - 17:57:19 10° N 17:58:51 13° NNE 18:00:27 10° NE daylight
26 Apr - 19:32:22 10° NW 19:35:38 85° SW 19:38:52 10° SE daylight
27 Apr - 10:34:11 10° SSE 10:35:41 13° SE 10:37:19 10° E daylight
27 Apr - 12:08:38 10° WSW 12:11:47 46° NW 12:14:56 10° NE daylight
27 Apr - 18:38:27 10° NW 18:41:34 42° NE 18:44:40 10° ESE daylight
27 Apr - 20:15:48 10° W 20:17:42 14° SW 20:19:29 10° SSW daylight
28 Apr - 11:14:30 10° SW 11:17:44 76° SE 11:20:59 10° NE daylight
28 Apr - 12:52:42 10° WNW 12:54:28 14° NNW 12:56:11 10° N daylight
28 Apr - 17:44:45 10° NNW 17:47:23 22° NNE 17:50:03 10° E daylight
28 Apr - 19:20:52 10° WNW 19:23:48 31° SW 19:26:42 10° SSE daylight
29 Apr - 10:20:52 10° SSW 10:23:46 31° SE 10:26:44 10° ENE daylight
29 Apr - 11:57:33 10° W 12:00:11 22° NNW 12:02:48 10° NNE daylight
29 Apr - 16:51:23 10° N 16:53:07 14° NNE 16:54:55 10° ENE daylight
29 Apr - 18:26:35 10° NW 18:29:51 75° SW 18:33:04 10° SE daylight
30 Apr - 09:28:03 10° SSE 09:29:53 15° SE 09:31:49 10° E daylight
30 Apr - 11:02:54 10° WSW 11:06:00 41° NW 11:09:07 10° NE daylight
30 Apr - 17:32:38 10° NW 17:35:48 47° NE 17:38:57 10° ESE daylight
30 Apr - 19:10:19 10° W 19:11:53 13° SW 19:13:19 10° SSW daylight
01 May - 10:08:42 10° SW 10:11:56 87° SE 10:15:12 10° NE daylight
01 May - 11:47:10 10° NW 11:48:44 13° NNW 11:50:13 10° N daylight
01 May - 16:38:54 10° NNW 16:41:38 24° NNE 16:44:23 10° E daylight
01 May - 18:15:09 10° WNW 18:17:59 27° SW 18:20:47 10° S daylight
02 May - 09:14:58 10° SSW 09:17:58 36° SE 09:21:00 10° ENE daylight
02 May - 10:51:54 10° W 10:54:25 20° NNW 10:56:55 10° NNE daylight
02 May - 15:45:27 10° N 15:47:22 15° NNE 15:49:21 10° ENE daylight
02 May - 17:20:48 10° NW 17:24:02 65° SW 17:27:15 10° SE daylight
03 May - 08:21:58 10° S 08:24:03 16° SE 08:26:14 10° E daylight
03 May - 09:57:11 10° WSW 10:00:13 36° NW 10:03:17 10° NNE daylight
03 May - 16:26:48 10° NW 16:30:01 54° NE 16:33:12 10° ESE daylight
03 May - 18:04:58 10° WSW 18:06:03 11° SW 18:06:59 10° SW daylight
04 May - 09:02:54 10° SW 09:06:08 82° NW 09:09:24 10° NE daylight
04 May - 10:41:40 10° NW 10:42:59 12° NNW 10:44:13 10° N daylight
04 May - 15:33:02 10° NNW 15:35:52 27° NE 15:38:42 10° E daylight
04 May - 17:09:26 10° WNW 17:12:10 24° SW 17:14:50 10° S daylight
